[Date Prev][Date Next][Thread Prev][Thread Next] - [Date Index][Thread Index][Author Index]
2 Line ISS Keps 12-26
- Subject: [sarex] 2 Line ISS Keps 12-26
- From: "Dave Larsen PhD" <doc@xxxxxxxxxxx>
- Date: Fri, 26 Dec 2003 04:19:54 -0800
ISS
1 25544U 98067A 03360.16445602 .00019695 00000-0 19404-3 0 9339
2 25544 51.6286 131.0677 0006072 299.8791 60.3843 15.65950868291026
----
Via the sarex mailing list at AMSAT.ORG courtesy of AMSAT-NA.
To unsubscribe, send "unsubscribe sarex" to Majordomo@amsat.org
AMSAT Home